Other Public Products
Issued by NWS Grand Forks, ND

Home | Current Version | Previous Version | Graphics & Text | Print | Product List | Glossary On
Versions: 1 2 3 4 5 6 7 8 9 10 11 12 13 14 15 16 17 18 19 20 21 22 23 24 25 26 27 28 29 30 31 32 33 34 35 36 37 38 39 40 41 42 43 44 45 46 47 48 49 50
000
FPUS83 KFGF 030110
OPUFGF
PRAIRIE TO PINES WEATHER ROUNDUP
NATIONAL WEATHER SERVICE EASTERN NORTH DAKOTA/GRAND FORKS ND
700 PM CST MON MAR 02 2015

 **SATELLITE DATA USED TO AUGMENT SKY COVER AT AUTOMATED STATIONS**
 *****  WEATHER ACROSS EASTERN NORTH DAKOTA  *****

CITY           SKY/WX    TMP DP  RH WIND       PRES   REMARKS
GRAND FORKS    PTCLDY    26  17  68 S20G26    29.85F WCI  12
GRAND FORKS AF CLEAR     26  17  71 S20G25    29.82F WCI  12
GRAND CITY NWS   N/A     25 N/A N/A S21         N/A  WCI  10
BUXTON         NOT AVBL
DEVILS LAKE    CLEAR     27  19  74 S13       29.77F WCI  16
FARGO          CLOUDY    29  17  61 S22G35    29.92F WCI  15
WAHPETON ARPT  CLOUDY    28  18  64 S23G31    29.97F WCI  14
$$

 *****  WEATHER ACROSS CENTRAL AND WESTERN NORTH DAKOTA  *****

CITY           SKY/WX    TMP DP  RH WIND       PRES   REMARKS
JAMESTOWN      MOCLDY    28  20  71 S18       29.77F WCI  15
BISMARCK       MOCLDY    34  24  67 CALM      29.73S
MINOT          PTCLDY    31  20  63 W8        29.71S WCI  23
MINOT AFB      MOCLDY    24  22  91 NW7       29.71R WCI  16
GARRISON         N/A     28  19  69 NW8       29.71R WCI  20
WILLISTON      CLOUDY    22  15  75 N23G31    29.82R WCI   6
DICKINSON      PTCLDY    31  14  49 NW13      29.69S WCI  21
HETTINGER      MOCLDY    31  13  47 W3        29.72R
$$

 *****  OTHER OBSERVATIONS NORTHEAST NORTH DAKOTA  *****

CITY           SKY/WX    TMP DP  RH WIND       PRES   REMARKS
WALHALLA         N/A     27  19  74 S13       29.80S WCI  16
LANGDON        NOT AVBL
CAVALIER       FAIR      27  18  69 S17       29.81S WCI  14
GRAFTON        NOT AVBL
CANDO          FAIR      25  19  80 S14       29.75R WCI  13
FORT TOTTEN      N/A     26  19  74 S12       29.95S WCI  16
ROLLA          FAIR      21  19  93 SW12      29.71S WCI   9
RUGBY          FAIR      25  19  80 S9        29.72F WCI  15
 ***** THE ABOVE OBSERVATIONS ARE NON NWS ARE NOT QUALITY
        CONTROLLED AND MAY MIS-REPORT RAIN FOR SNOW...
$$

 *****  OTHER OBSERVATIONS SOUTHEAST NORTH DAKOTA *****

CITY           SKY/WX    TMP DP  RH WIND       PRES   REMARKS
COOPERSTOWN    NOT AVBL
VALLEY CITY    FLURRIES  27  23  86 S17G26    29.82F WCI  14
OAKES            N/A     27  19  74 SE18G24   29.85F WCI  13
GWINNER        CLEAR     30  21  69 S17       29.89F WCI  18
SHEYENNE NWR     N/A     27  18  69 S14       29.95S WCI  16
BUFFALO        NOT AVBL
WYNDMERE         N/A     27  19  74 S13         N/A  WCI  16
 ***** THE ABOVE OBSERVATIONS ARE NON NWS ARE NOT QUALITY
       CONTROLLED AND MAY MIS-REPORT RAIN FOR SNOW...
$$

  *****  WEATHER ACROSS NORTHERN MINNESOTA  *****

CITY           SKY/WX    TMP DP  RH WIND       PRES   REMARKS
FLAG ISLAND    CLOUDY    18  10  73 S21       29.88F WCI   1
WARROAD        CLOUDY    25  10  54 S10       29.89F WCI  15
ROSEAU         CLOUDY    27  12  54 S17       29.87F WCI  14
HALLOCK        NOT AVBL
THF RVR FALLS  CLOUDY    25  16  68 S20       29.89F WCI  11
HALSTAD        NOT AVBL
FOSSTON        CLOUDY    25  12  58 SE16G22   29.91F WCI  12
BAUDETTE       CLEAR     22   6  50 S14       29.91F WCI   9
WASKISH        CLOUDY    25   7  46 SE8G17    29.94F WCI  16
CROOKSTON      CLEAR     25  18  74 S24G30    29.90F WCI   9
$$
  *****  WEATHER ACROSS CENTRAL AND WEST MINNESOTA  *****

CITY           SKY/WX    TMP DP  RH WIND       PRES   REMARKS
BEMIDJI        CLOUDY    25  11  55 S14       29.97F WCI  13
PARK RAPIDS    CLOUDY    25  10  53 S13       29.99F WCI  14
WADENA         CLOUDY    23  14  68 S16G22    30.01F WCI  10
DETROIT LAKES  MOCLDY    27  18  69 S18       29.97F WCI  13
MOORHEAD       CLOUDY    28  19  69 S21G26    29.95F WCI  15
FERGUS FALLS   CLOUDY    25  16  68 S21G29    30.02F WCI  10
ELBOW LAKE     CLOUDY    24  17  74 SE22G28   30.00S WCI   9
MORRIS MN      CLOUDY    27  18  69 SE22      30.01F WCI  12
STAPLES        CLOUDY    23  10  58 S14G20    30.04F WCI  11
WHEATON        CLOUDY    25  18  74 SE20G26   30.01R WCI  11
$$
  *****  WEATHER ELSEWHERE ACROSS MINNESOTA  *****

CITY           SKY/WX    TMP DP  RH WIND       PRES   REMARKS
DULUTH         FAIR      22   4  46 S10       30.09F WCI  11
INTRNTL FALLS  CLEAR     24   4  42 S6        29.99F WCI  17
ELY            CLEAR     21   3  45 S10       30.06F WCI  10
CLOQUET        CLEAR     21   1  42 S6        30.10F WCI  14
BRAINERD       CLOUDY    23  10  57 S16G22    30.07F WCI  10
HIBBING        CLEAR     22   3  44 S9        30.06F WCI  12
ALEXANDRIA     CLOUDY    23  14  68 S18       30.03F WCI   9
SAINT CLOUD    CLOUDY    23   9  55 S13       30.12F WCI  11
MINNEAPOLIS    CLOUDY    22   9  57 SE13      30.20F WCI  10
$$

  *****  WEATHER ACROSS SOUTH DAKOTA  *****

CITY           SKY/WX    TMP DP  RH WIND       PRES   REMARKS
SIOUX FALLS    CLOUDY    30  20  66 SE18G30   30.00F WCI  18
BROOKINGS      NOT AVBL
WATERTOWN      CLOUDY    26  18  71 S20G25    29.92F WCI  12
HURON          CLOUDY    31  19  61 S23G30    29.89F WCI  18
SISSETON         N/A     28  19  69 S15       29.95F WCI  16
ABERDEEN       MOCLDY    29  18  63 S23       29.87F WCI  15
MITCHELL       CLOUDY    35  19  52 MISG      29.93F
PIERRE         CLOUDY    39  13  34 SE12      29.77F
MOBRIDGE       MOCLDY    37  22  54 SE9       29.71F
RAPID CITY     CLOUDY    39  23  52 N9        29.67F
$$

  *****  SOME WEATHER IN NEARBY STATES *****

CITY           SKY/WX    TMP DP  RH WIND       PRES   REMARKS
GLASGOW MT     CLOUDY    22  11  62 NW25      29.94R WCI   5
GREAT FALLS MT CLOUDY    19  12  74 N22       30.00R WCI   2
CHEYENNE WY    PTCLDY    34  23  64 S10       29.58F HAZE
SCOTTSBLUFF NE   N/A     35  24  64 SE16      29.64F
OMAHA NE       CLOUDY    36  21  54 SE16      30.09F
DES MOINES IA  MOCLDY    30  17  58 E9        30.19F WCI  22
DAVENPORT IA   CLOUDY    26  16  65 SE7       30.31F WCI  18
CHICAGO IL     CLOUDY    28  16  60 S12       30.35F WCI  18
EAU CLAIRE WI  CLOUDY    24   7  48 S9        30.23F WCI  14
LA CROSSE WI   CLOUDY    27  11  51 S7        30.28S WCI  19
$$

  *****  SOME NATIONAL WEATHER *****

CITY           SKY/WX    TMP DP  RH WIND       PRES   REMARKS
LA GUARDIA NY  PTCLDY    33  11  39 NW20      30.27R WCI  21
RALEIGH NC     MOCLDY    49  23  36 CALM      30.30R
ATLANTA GA     CLOUDY    54  50  86 CALM      30.26S
NEW ORLEANS LA MOCLDY    70  66  87 E7        30.18S
OKLAHOMA CITY  DRIZZLE   36  32  85 S9        30.15F
ALBUQUERQUE NM CLOUDY    55  38  52 S29G36    29.84S
SALT LAKE CITY SNOW      35  33  92 W6        29.65R VSB 1/2
LOS ANGELES CA MOCLDY    57  44  62 SW9       29.92R
BOISE ID       MOCLDY    46  20  35 NW12      29.72S
SEATTLE WA     PTCLDY    50  29  44 N16       30.05R
$$

*** WEATHER ACROSS MANITOBA...SASKATCHEWAN AND ONTARIO ***
                ***ONTARIO***

CITY           SKY/WX    TMP DP  RH WIND       PRES   REMARKS
GERALDTON      MOCLDY    12  -6  44 S10       30.10F WCI  -1
THUNDER BAY    CLEAR     19  12  73 SW12      30.15F WCI   7
SIOUX LOOKOUT  PTCLDY    14  -2  48 S7        29.96F WCI   4
TORONTO        CLEAR     18   9  68 W6        30.42R WCI   9
BIG TROUT LK   PTCLDY    12  -4  48 S9        29.83F WCI   0
PICKLE LAKE    PTCLDY    14  -8  37 S8        29.92F WCI   3
DRYDEN         CLEAR     18   5  57 S10       29.93F WCI   6
KENORA         MOCLDY    21   7  53 S14       29.88F WCI   8
$$
                *** MANITOBA***

CITY           SKY/WX    TMP DP  RH WIND       PRES   REMARKS
BRANDON        CLOUDY    21  16  79 SW7       29.69F WCI  13
DAUPHIN        MOCLDY    23  16  74 SW10      29.68F WCI  12
ISLAND LAKE    FLURRIES  23   7  50 S9        29.69F WCI  13
PILOT MOUND      N/A     19  18  93 S14         N/A  WCI   6
THE PAS        LGT SNOW  14  10  85 NW24G31   29.72R WCI  -5
THOMPSON       LGT SNOW  16  12  86 W6        29.61S WCI   7
WINNIPEG       MOCLDY    23  14  68 S23G31    29.81F WCI   7
LYNN LAKE      LGT SNOW   0  -6  78 NW18G29   29.77R WCI -22
CHURCHILL      FLURRIES  -4  -9  77 E21       29.81R WCI -28
$$
                ***SASKATCHEWAN***

CITY           SKY/WX    TMP DP  RH WIND       PRES   REMARKS
ESTEVAN        CLOUDY    16  12  86 NW29G36   29.78R BLWGSNOWWCI  -4
KINDERSLEY     PTCLDY     9   3  78 NW20      30.07R WCI -11
LLOYDMINSTER   PTCLDY     7  -2  66 NW16G30   30.09R WCI -11
PRINCE ALBERT  MOCLDY     7  -4  61 N18G31    29.97R WCI -12
REGINA         FLURRIES  14  10  85 NW32G38   29.87R WCI  -7
YORKTON        FLURRIES  16  12  86 NW18G26   29.73R WCI  -1



USA.gov is the U.S. government's official web portal to all federal, state and local government web resources and services.